map of ALA home
ALA - Airport
Location
City:  Almaty, Almaty, Kazakhstan
Near (Alt.):Alma Ata
Name:Almaty International Airport
ICAO:UAAA
IATA:ALA

Details
Type:Airport (Aerodrome, Airfield)
Use:Public/Civil, International (customs port of entry)
Latitude:4321'20"N (43.355556)
Longitude:7702'38"E (77.043889)
Elevation:2238 ft (682 m)
Variation:5.18E (WMM2015 magnetic declination)
0.04 annual change
Runways:2
Longest:14764 × 148 ft (4500 × 45 m), paved

Time
Time Zone:UTC+6
Local Time:

Weather
METAR:UAAA 240730Z 05003MPS 350V100 9999 FEW050 15/04 Q1028 R05R/CLRD65 NOSIG
TAF:UAAA 240500Z 2406/2506 02005MPS 9999 SCT050CB BKN100 TX16/2409Z TN06/2501Z
TEMPO 2412/2502 16005MPS 3000 FU
TEMPO 2502/2506 08006MPS

Related Locations
Nearby:
Farthest:IPC: 11258 mi / 18117 km
Easter Island (Isla de Pascua, Rapa Nui) [Mataveri Intl], VS, CL

Find:

   beyond  
but within

Other Information
Maps:
NOTAMs:
Links:
Sources:

  
flag of Kazakhstan
flag of Almaty
  

Sectional Chart

Flight Planning
at skyvector.com

Satellite Image

Google Maps Satellite view

 

Copyright © 2004-2018 Karl L. Swartz. All rights reserved.
The Great Circle Mapper name and logo are trademarks of the Great Circle Mapper.
All other trademarks mentioned herein belong to their respective owners.
Please see credits for attibutions and further copyright information.

  Follow gcmap on Facebook Follow gcmap on Twitter Follow gcmap on Google+ GCmap on LinkedIn

hCard Microformat

Geo Microformat